GW3759 Weather Reports


Display with metric or nautical units.
time (UTC)temp
F
wind
direction
speed
MPH
gust
MPH
rain 1hr
in
rain 24hr
in
rain mn
in
humidity
%
barometer
mb
20260905180003 73 167 5.0 10.0 0.00 0.42 0.40 93 1012.4
20260905174503 71 158 5.0 8.0 0.00 0.42 0.40 95 1012.1
20260905173003 71 317 4.0 11.0 0.03 0.42 0.40 95 1010.4
20260905171504 70 333 1.0 3.0 0.06 0.42 0.40 95 1010.9
20260905170004 70 33 0.0 3.0 0.29 0.42 0.40 95 1011.9
20260905164504 69 5 1.0 5.0 0.39 0.42 0.40 93 1012.0
20260905163003 69 69 1.0 8.0 0.37 0.39 0.37 92 1012.9
20260905161505 70 66 5.0 11.0 0.34 0.36 0.34 91 1013.5
20260905160003 74 55 2.0 16.0 0.11 0.13 0.11 87 1014.8
20260905154503 76 344 1.0 3.0 0.01 0.03 0.01 87 1013.3
20260905153009 77 350 2.0 6.0 0.00 0.02 0.00 86 1013.0
20260905151503 77 300 0.0 5.0 0.00 0.02 0.00 85 1012.9
20260905150010 77 352 3.0 7.0 0.00 0.02 0.00 85 1013.0
20260905144508 77 316 1.0 5.0 0.00 0.02 0.00 86 1012.9
20260905143004 76 325 2.0 5.0 0.00 0.02 0.00 87 1013.0
20260905141508 76 9 2.0 5.0 0.00 0.02 0.00 88 1013.0
20260905140005 75 318 1.0 3.0 0.00 0.02 0.00 89 1013.0
20260905134504 75 296 2.0 5.0 0.00 0.02 0.00 88 1012.7
20260905133003 74 342 1.0 3.0 0.00 0.02 0.00 90 1012.5
20260905131504 74 335 1.0 3.0 0.00 0.02 0.00 89 1012.4
20260905130004 73 318 1.0 2.0 0.00 0.02 0.00 89 1012.5
20260905124512 73 318 0.0 3.0 0.00 0.02 0.00 91 1012.4
20260905123003 72 352 0.0 3.0 0.00 0.02 0.00 93 1012.2
20260905121505 72 352 0.0 1.0 0.00 0.02 0.00 93 1012.1
20260905120007 71 352 0.0 2.0 0.00 0.02 0.00 93 1012.1
20260905114508 70 352 0.0 1.0 0.00 0.02 0.00 94 1012.1
20260905113004 70 352 0.0 2.0 0.00 0.02 0.00 95 1011.7
20260905111512 69 352 0.0 0.0 0.00 0.02 0.00 95 1011.8
20260905110009 69 352 0.0 0.0 0.00 0.02 0.00 95 1011.5
20260905104513 69 352 0.0 0.0 0.00 0.02 0.00 95 1011.1
20260905103014 70 352 0.0 0.0 0.00 0.02 0.00 95 1011.1
20260905101514 70 352 0.0 0.0 0.00 0.02 0.00 95 1011.2
20260905100012 70 352 0.0 0.0 0.00 0.02 0.00 94 1011.0
20260905094503 70 352 0.0 0.0 0.00 0.02 0.00 95 1010.8
20260905093004 70 352 0.0 0.0 0.00 0.02 0.00 94 1010.8
20260905091503 70 352 0.0 2.0 0.00 0.02 0.00 95 1010.9
20260905090005 70 352 0.0 2.0 0.00 0.02 0.00 95 1011.0
20260905084503 70 352 0.0 0.0 0.00 0.02 0.00 95 1011.0
20260905083006 70 352 0.0 2.0 0.00 0.02 0.00 95 1011.3
20260905081503 70 352 0.0 3.0 0.00 0.02 0.00 95 1011.3
20260905080004 70 352 0.0 0.0 0.00 0.02 0.00 94 1011.4
20260905074504 70 352 0.0 2.0 0.00 0.02 0.00 94 1011.6
20260905073012 70 352 1.0 2.0 0.00 0.02 0.00 94 1011.6
20260905071503 71 352 0.0 0.0 0.00 0.02 0.00 93 1011.6
20260905070005 71 352 0.0 2.0 0.00 0.02 0.00 93 1011.7
20260905064510 72 360 0.0 2.0 0.00 0.02 0.00 93 1012.0
20260905063012 72 147 0.0 3.0 0.00 0.02 0.00 93 1012.3
20260905061517 72 263 0.0 6.0 0.00 0.02 0.00 92 1012.5
20260905060007 72 141 2.0 6.0 0.00 0.02 0.00 92 1012.5
20260905054503 72 132 2.0 4.0 0.00 0.02 0.00 92 1012.7
20260905053017 72 165 0.0 3.0 0.00 0.02 0.00 93 1013.0
20260905051520 71 263 0.0 6.0 0.00 0.03 0.00 93 1013.2
20260905050016 71 130 1.0 5.0 0.00 0.12 0.00 92 1013.3
20260905044504 72 128 3.0 7.0 0.00 0.23 0.00 92 1013.5
20260905043008 72 325 0.0 1.0 0.00 0.23 0.00 92 1013.3
20260905041505 72 325 0.0 1.0 0.00 0.23 0.00 92 1013.3
20260905040022 72 325 1.0 2.0 0.00 0.23 0.00 92 1013.6
20260905034520 72 325 0.0 1.0 0.00 0.23 0.23 92 1013.6
20260905033006 72 325 0.0 2.0 0.00 0.23 0.23 93 1013.5
20260905031509 72 163 0.0 1.0 0.00 0.23 0.23 93 1013.5
20260905030012 72 150 0.0 1.0 0.00 0.23 0.23 91 1013.7
20260905024505 73 235 0.0 3.0 0.00 0.23 0.23 92 1013.7
20260905023030 73 103 0.0 3.0 0.00 0.23 0.23 90 1013.6
20260905021514 73 167 0.0 4.0 0.00 0.23 0.23 91 1013.6
20260905020014 73 149 0.0 4.0 0.00 0.23 0.23 91 1013.5
20260905014516 73 148 0.0 3.0 0.00 0.23 0.23 91 1013.2
20260905013012 73 152 0.0 0.0 0.00 0.23 0.23 90 1013.3
20260905011508 73 135 0.0 0.0 0.00 0.23 0.23 91 1013.2
20260905010012 74 158 0.0 0.0 0.00 0.23 0.23 90 1012.7
20260905004517 74 177 0.0 4.0 0.00 0.23 0.23 89 1012.6
20260905003005 74 200 0.0 5.0 0.00 0.23 0.23 90 1012.5
20260905001503 74 175 1.0 5.0 0.00 0.23 0.23 89 1012.6
20260905000004 74 180 0.0 5.0 0.00 0.23 0.23 91 1013.1
20260904234503 74 153 0.0 3.0 0.00 0.23 0.23 90 1013.0
20260904233004 74 157 2.0 7.0 0.00 0.23 0.23 91 1013.3
20260904231504 74 257 0.0 7.0 0.00 0.23 0.23 90 1012.7
20260904230006 75 170 5.0 11.0 0.00 0.23 0.23 90 1013.0
20260904224505 75 244 1.0 3.0 0.00 0.23 0.23 89 1012.4
20260904223003 75 129 1.0 3.0 0.02 0.23 0.23 91 1012.4
20260904221505 75 36 0.0 2.0 0.02 0.23 0.23 91 1012.7
20260904220004 75 36 0.0 3.0 0.02 0.23 0.23 89 1013.1
20260904214511 77 344 0.0 8.0 0.02 0.23 0.23 85 1014.1
20260904213005 78 142 5.0 19.0 0.00 0.21 0.21 83 1015.1
20260904211504 80 155 5.0 8.0 0.00 0.21 0.21 82 1013.8
20260904210008 81 222 1.0 6.0 0.00 0.21 0.21 80 1013.5
20260904204512 82 97 1.0 6.0 0.00 0.21 0.21 81 1013.6
20260904203027 84 134 2.0 4.0 0.00 0.21 0.21 79 1013.2
20260904201514 85 86 4.0 11.0 0.00 0.21 0.21 81 1013.1
20260904200004 87 349 0.0 3.0 0.00 0.21 0.21 76 1012.3
20260904194507 89 349 0.0 1.0 0.00 0.21 0.21 71 1012.5
20260904193009 90 306 0.0 3.0 0.00 0.21 0.21 69 1013.0
20260904191518 90 146 0.0 4.0 0.00 0.21 0.21 68 1012.9
20260904190023 90 152 2.0 4.0 0.00 0.21 0.21 66 1012.9
20260904184512 90 274 0.0 3.0 0.00 0.21 0.21 67 1013.2
20260904183008 89 274 0.0 2.0 0.00 0.21 0.21 68 1013.6
20260904181518 89 205 0.0 4.0 0.00 0.21 0.21 69 1013.7